Satellite-Ground Cal/Val Region Overpasses Predictions

Prediction of Satellite NPP Overpassing Cal/Val Region: PacNW

Region Location: (Latitude: 10.00, Longitude: 139.50) to (Latitude: 22.70, Longitude: 165.60).

Table of predicted overpasses for the next 14.0 days since TLE Epoch: 6/8/2017
Interval Starting Time Starting Location Ending Time Ending Location
1 06/09/2017 02:39:06 ( 10.04, 159.94) 06/09/2017 02:42:41 ( 22.66, 156.94)
2 06/09/2017 15:10:59 ( 22.67, 157.18) 06/09/2017 15:14:34 ( 10.05, 154.18)
3 06/10/2017 02:20:04 ( 10.01, 164.71) 06/10/2017 02:23:40 ( 22.69, 161.69)
4 06/10/2017 14:51:57 ( 22.64, 161.94) 06/10/2017 14:55:32 ( 10.02, 158.93)
5 06/11/2017 03:42:32 ( 10.04, 144.09) 06/11/2017 03:46:07 ( 22.66, 141.08)
6 06/11/2017 14:34:12 ( 18.16, 165.59) 06/11/2017 14:36:30 ( 10.05, 163.70)
7 06/11/2017 16:14:25 ( 22.67, 141.33) 06/11/2017 16:16:33 ( 15.16, 139.51)
8 06/12/2017 03:23:30 ( 10.01, 148.85) 06/12/2017 03:27:06 ( 22.69, 145.83)
9 06/12/2017 15:55:22 ( 22.70, 146.09) 06/12/2017 15:58:58 ( 10.02, 143.07)
10 06/13/2017 03:04:28 ( 10.04, 153.60) 06/13/2017 03:08:03 ( 22.66, 150.60)
11 06/13/2017 15:36:21 ( 22.67, 150.84) 06/13/2017 15:39:56 ( 10.05, 147.84)
12 06/14/2017 02:45:26 ( 10.01, 158.37) 06/14/2017 02:49:02 ( 22.69, 155.35)
13 06/14/2017 15:17:18 ( 22.70, 155.61) 06/14/2017 15:20:54 ( 10.02, 152.59)
14 06/15/2017 02:26:24 ( 10.04, 163.12) 06/15/2017 02:29:59 ( 22.66, 160.12)
15 06/15/2017 14:58:17 ( 22.67, 160.36) 06/15/2017 15:01:52 ( 10.05, 157.36)
16 06/16/2017 02:10:08 ( 19.76, 165.59) 06/16/2017 02:10:58 ( 22.69, 164.87)
17 06/16/2017 03:48:52 ( 10.01, 142.51) 06/16/2017 03:52:27 ( 22.64, 139.51)
18 06/16/2017 14:39:15 ( 22.70, 165.13) 06/16/2017 14:42:51 ( 10.02, 162.11)
19 06/16/2017 16:20:45 ( 22.69, 139.75) 06/16/2017 16:21:02 ( 21.70, 139.50)
20 06/17/2017 03:29:50 ( 10.04, 147.26) 06/17/2017 03:33:25 ( 22.67, 144.26)
21 06/17/2017 16:01:43 ( 22.66, 144.50) 06/17/2017 16:05:18 ( 10.04, 141.50)
22 06/18/2017 03:10:48 ( 10.01, 152.03) 06/18/2017 03:14:24 ( 22.70, 149.01)
23 06/18/2017 15:42:41 ( 22.69, 149.27) 06/18/2017 15:46:17 ( 10.01, 146.25)
24 06/19/2017 02:51:46 ( 10.04, 156.78) 06/19/2017 02:55:21 ( 22.67, 153.78)
25 06/19/2017 15:23:39 ( 22.66, 154.02) 06/19/2017 15:27:14 ( 10.04, 151.02)
26 06/20/2017 02:32:44 ( 10.02, 161.55) 06/20/2017 02:36:20 ( 22.70, 158.53)
27 06/20/2017 15:04:37 ( 22.69, 158.79) 06/20/2017 15:08:13 ( 10.01, 155.77)
28 06/21/2017 02:14:34 ( 13.10, 165.59) 06/21/2017 02:17:17 ( 22.67, 163.29)
29 06/21/2017 03:55:12 ( 10.05, 140.92) 06/21/2017 03:56:56 ( 16.16, 139.50)
30 06/21/2017 14:45:35 ( 22.66, 163.54) 06/21/2017 14:49:10 ( 10.04, 160.53)
31 06/22/2017 03:36:10 ( 10.02, 145.69) 06/22/2017 03:39:45 ( 22.65, 142.68)
32 06/22/2017 14:29:46 ( 11.36, 165.60) 06/22/2017 14:30:09 ( 10.01, 165.29)


NCC Satellite Cal/Val Overpasses Prediction Service
